TimeEDT,TemperatureF,Dew PointF,Humidity,Sea Level PressureIn,VisibilityMPH,Wind Direction,Wind SpeedMPH,Gust SpeedMPH,PrecipitationIn,Events,Conditions,WindDirDegrees,DateUTC
12:51 AM,36.0,25.0,64,29.93,10.0,SW,10.4,-,N/A,,Overcast,220,2014-03-10 04:51:00
1:51 AM,37.0,26.1,65,29.90,10.0,SW,13.8,-,N/A,,Overcast,220,2014-03-10 05:51:00
2:51 AM,37.0,25.0,62,29.87,10.0,SW,15.0,-,N/A,,Overcast,220,2014-03-10 06:51:00
3:51 AM,37.0,25.0,62,29.87,10.0,WSW,11.5,-,N/A,,Overcast,240,2014-03-10 07:51:00
4:51 AM,37.9,25.0,60,29.84,10.0,WSW,8.1,-,N/A,,Overcast,240,2014-03-10 08:51:00
5:51 AM,37.9,25.0,60,29.83,10.0,WSW,8.1,-,N/A,,Overcast,240,2014-03-10 09:51:00
6:51 AM,37.9,26.1,62,29.83,10.0,SW,9.2,-,N/A,,Overcast,230,2014-03-10 10:51:00
7:51 AM,39.9,28.0,63,29.83,10.0,WSW,11.5,-,N/A,,Overcast,250,2014-03-10 11:51:00
8:51 AM,39.9,28.0,63,29.84,10.0,SW,9.2,-,N/A,,Overcast,230,2014-03-10 12:51:00
9:51 AM,39.9,30.0,68,29.81,10.0,SW,16.1,-,N/A,,Overcast,230,2014-03-10 13:51:00
10:51 AM,39.9,32.0,73,29.80,8.0,SW,13.8,-,N/A,,Mostly Cloudy,220,2014-03-10 14:51:00
11:51 AM,42.1,32.0,67,29.79,10.0,WSW,9.2,-,N/A,,Mostly Cloudy,250,2014-03-10 15:51:00
12:51 PM,46.0,34.0,63,29.78,10.0,SW,13.8,-,N/A,,Mostly Cloudy,230,2014-03-10 16:51:00
1:51 PM,48.0,36.0,63,29.75,10.0,WSW,19.6,-,N/A,,Overcast,250,2014-03-10 17:51:00
2:51 PM,53.1,36.0,52,29.71,10.0,SW,21.9,-,N/A,,Mostly Cloudy,230,2014-03-10 18:51:00
3:51 PM,54.1,36.3,51,29.68,10.0,WSW,20.7,-,N/A,,Scattered Clouds,240,2014-03-10 19:51:00
4:51 PM,54.0,35.8,50,29.65,10.0,WSW,18.4,-,N/A,,Scattered Clouds,240,2014-03-10 20:51:00
5:51 PM,54.1,35.8,50,29.65,10.0,WSW,20.7,-,N/A,,Scattered Clouds,240,2014-03-10 21:51:00
6:51 PM,53.1,37.2,55,29.65,10.0,WSW,16.1,-,N/A,,Scattered Clouds,240,2014-03-10 22:51:00
7:51 PM,50.4,37.0,60,29.68,10.0,WSW,11.5,-,N/A,,Partly Cloudy,240,2014-03-10 23:51:00
8:51 PM,48.6,36.9,64,29.68,10.0,SW,11.5,-,N/A,,Partly Cloudy,230,2014-03-11 00:51:00
9:51 PM,46.4,36.9,69,29.69,10.0,SW,11.5,-,N/A,,Partly Cloudy,230,2014-03-11 01:51:00
10:51 PM,46.8,36.5,67,29.70,10.0,SW,9.2,-,N/A,,Partly Cloudy,230,2014-03-11 02:51:00
11:51 PM,46.8,36.5,67,29.70,10.0,WSW,9.2,-,N/A,,Partly Cloudy,250,2014-03-11 03:51:00